Location: Anscroft
(39.1254°N, 77.0539°W)
Time: 15:14:18
(UTC+00:00)

Daily predictions for brighter satellites

Satellite Brightness Start Highest point End
(mag) Time Altitude Azimuth Time Altitude Azimuth Time Altitude Azimuth
STARLINK-1236 3.6 23:50:55 10° SW 23:54:51 60° SE 23:58:49 10° NE
STARLINK-1191 3.2 23:51:46 10° SW 23:54:52 71° NW 23:58:00 10° NE
STARLINK-1210 3.2 23:52:13 10° SW 23:55:19 70° NW 23:58:27 10° NE
STARLINK-1221 3.2 23:52:47 10° SW 23:55:53 69° NW 23:59:02 10° NE
STARLINK-1219 3.2 23:53:08 10° WSW 23:56:14 68° NW 23:59:22 10° NE
STARLINK-1222 3.2 23:53:35 10° WSW 23:56:41 68° NW 23:59:48 10° NE
